Theta_e
301 301 302 302 302 300 301 301 299 299 300 300 298 297 296 297 294 293 296 298 299 300 302 304 305 307 310 311 315 318 318 318 318 320 322 324 324 325 325 326 327 329 331 333 334 336 338 339 340 341 343 344 345 345 346 348 350 352 355 356 356 357 356 355 355 356 356 356 357 357 356 356 355 355 355 355 355 355 355 355 355 354 352 350 347 345 344
300 301 302 303 302 301 300 301 301 300 300 300 300 299 298 298 297 297 298 300 302 303 304 305 307 309 312 313 314 317 318 319 322 323 322 323 324 324 325 326 327 330 332 333 334 336 337 338 339 340 342 343 344 344 345 347 348 351 354 354 355 356 356 356 356 356 356 356 356 356 356 355 355 355 355 355 355 354 354 355 355 354 353 350 348 346 344
298 300 302 303 302 301 299 299 301 301 300 300 301 300 299 299 298 299 297 298 300 303 306 307 307 312 317 312 314 316 317 323 324 323 323 323 323 324 326 327 327 329 332 333 334 335 336 338 338 339 341 343 344 345 345 346 347 349 352 353 354 355 356 357 357 357 356 356 356 355 355 355 355 355 354 354 354 353 354 354 354 354 353 350 348 347 346
296 300 300 301 302 301 299 299 299 299 300 298 300 299 300 298 297 297 297 296 296 300 303 307 309 313 312 311 312 314 316 324 324 321 322 324 324 325 326 326 327 329 331 333 334 335 336 338 339 339 340 342 344 344 345 345 346 348 350 352 353 354 355 357 357 357 356 356 355 355 355 355 355 355 355 354 353 352 353 353 353 354 352 350 349 348 347
294 299 301 300 300 298 295 297 300 300 299 300 301 303 304 304 302 298 296 295 298 303 306 306 306 311 309 310 313 314 317 324 325 323 324 324 325 326 327 327 328 330 331 333 335 337 338 340 340 341 341 342 343 344 345 346 347 347 348 350 352 353 355 356 357 357 357 356 355 355 355 355 356 355 354 354 353 352 352 353 353 352 352 351 349 348 347
293 299 299 300 296 290 292 301 304 303 301 301 300 298 300 302 302 299 301 302 301 302 303 305 305 305 307 310 312 315 319 323 326 326 326 326 327 328 328 330 330 331 333 334 336 338 340 342 342 343 343 342 344 345 346 347 346 346 346 348 350 352 354 356 357 357 357 356 355 355 355 355 356 355 354 354 354 353 353 353 352 352 352 351 350 348 347
295 298 300 295 290 291 302 303 305 306 304 304 302 312 314 316 311 308 306 308 306 305 304 306 306 311 312 320 320 322 321 318 324 329 330 329 327 328 330 330 331 332 333 334 335 336 339 343 344 344 343 344 344 345 346 346 346 346 346 347 349 351 353 356 357 357 357 356 355 355 355 355 355 355 354 354 354 353 353 352 352 351 351 350 350 349 348
296 296 295 290 288 299 308 307 308 308 306 306 314 312 315 318 317 310 310 313 313 313 310 309 311 313 319 324 325 325 326 324 320 319 327 332 331 330 332 332 332 332 333 334 335 337 341 344 346 345 344 345 345 345 346 346 347 347 346 346 348 350 352 355 357 358 357 356 356 355 355 355 354 354 355 354 354 354 353 353 353 353 352 351 350 349 348
293 293 293 293 301 303 302 305 308 306 302 303 308 306 310 317 318 315 313 315 318 319 318 318 315 315 320 322 324 328 329 330 329 322 322 317 321 325 326 331 336 338 337 335 336 339 342 343 345 346 346 346 346 346 346 346 347 347 347 346 347 349 351 354 356 358 358 357 356 355 355 354 354 354 354 354 355 355 353 353 353 352 352 351 350 349 347
298 293 292 293 293 292 295 304 313 316 312 309 317 314 308 317 320 320 321 319 320 320 320 319 317 314 316 316 320 327 332 335 337 338 336 332 318 314 317 324 328 336 340 342 342 341 342 346 346 347 347 347 346 346 347 347 347 347 347 346 347 348 350 352 355 357 358 357 356 355 355 354 354 355 355 356 355 355 353 353 352 353 352 351 349 348 346
296 295 290 289 290 293 298 310 313 314 319 321 318 311 304 314 319 321 322 320 321 322 322 321 318 314 312 312 319 330 333 335 339 338 339 340 339 330 317 320 325 329 333 339 343 343 342 345 349 350 350 348 347 346 347 347 347 347 347 347 348 348 350 352 354 357 358 358 357 356 355 355 355 355 355 355 356 355 355 354 353 353 351 349 346 345 345
295 293 292 290 295 302 309 311 311 311 312 312 310 299 300 313 320 320 320 319 319 320 322 324 322 318 314 316 323 334 336 336 338 339 338 338 339 343 345 335 322 327 336 340 340 341 341 342 347 351 351 350 348 347 347 347 347 346 347 348 349 349 350 351 353 356 358 358 357 357 356 356 356 356 356 356 355 355 354 354 352 350 347 346 344 343 343
297 297 292 295 300 314 317 313 311 311 312 308 297 291 304 318 321 322 322 321 321 323 323 323 321 322 326 329 332 336 336 336 337 340 341 340 340 340 342 342 347 331 328 339 342 343 343 343 344 349 352 351 349 348 348 347 346 348 349 349 349 349 349 351 353 355 358 358 358 358 358 357 357 357 357 356 355 354 353 351 348 345 343 343 342 342 342
295 294 291 290 298 308 314 313 316 314 309 298 292 306 319 322 326 328 328 326 327 328 326 326 326 327 331 333 333 332 333 334 334 337 338 338 339 341 342 342 342 344 345 334 334 343 345 345 346 347 348 349 349 349 348 348 348 350 350 349 348 348 349 351 354 356 358 359 359 359 359 358 356 356 357 357 356 355 352 349 346 344 342 340 340 339 339
301 298 293 292 291 304 313 313 312 314 302 301 313 321 325 329 328 328 328 328 327 327 325 327 327 328 328 328 329 330 332 333 334 335 336 336 337 337 339 339 340 343 342 341 342 342 345 349 351 351 350 347 347 347 348 349 351 351 351 351 351 351 352 354 355 357 359 358 358 359 358 357 356 355 355 355 355 353 350 347 346 343 341 339 338 337 338
298 296 292 291 302 311 316 312 304 311 315 320 324 326 323 326 327 325 325 326 327 327 326 326 327 327 327 327 328 329 331 333 333 334 334 336 337 338 340 340 339 340 341 342 340 340 342 344 347 351 351 349 348 347 347 348 352 353 355 356 356 355 355 356 357 358 358 358 359 358 357 356 355 354 353 354 353 352 350 347 345 342 339 338 337 337 337
304 301 303 310 314 315 318 318 318 321 323 326 327 327 325 324 324 326 325 324 326 328 328 328 328 327 328 328 329 329 330 331 331 330 331 333 334 336 336 336 338 338 338 340 342 342 342 343 344 347 351 351 348 348 350 355 357 358 358 358 358 356 357 357 357 358 358 357 357 356 355 355 352 351 352 352 351 348 347 345 343 339 336 336 336 336 336
313 313 313 315 315 315 317 322 324 323 323 324 325 323 320 321 323 324 324 324 325 326 328 328 327 328 328 328 329 329 330 329 329 329 329 331 333 334 334 334 335 336 338 339 339 340 341 343 344 345 346 348 348 348 355 358 360 360 359 357 356 356 356 356 356 356 355 354 354 353 353 353 352 351 350 350 347 344 344 342 340 338 335 336 335 335 334
301 296 312 311 314 316 316 318 320 321 321 320 321 320 320 320 321 321 321 321 322 323 323 323 323 325 327 327 327 328 328 328 328 328 328 329 330 331 331 332 334 335 336 336 336 338 338 341 344 344 343 344 346 349 352 357 360 359 358 356 353 354 354 354 354 353 352 350 349 349 349 348 348 348 348 347 345 343 342 341 339 338 336 334 333 333 333
304 304 311 312 316 317 318 317 315 316 317 318 318 318 318 318 318 318 319 319 318 319 318 319 319 319 322 325 326 327 327 328 328 328 328 329 329 330 331 332 334 335 336 335 334 334 334 336 340 340 340 341 342 342 343 344 347 350 350 351 352 351 352 350 350 349 348 351 348 344 343 345 346 345 345 345 344 343 342 341 338 336 335 334 332 332 332
307 310 313 313 316 315 316 318 317 315 316 315 315 316 316 316 316 316 317 318 317 317 316 317 317 316 317 320 321 321 322 322 324 327 329 330 330 331 332 332 334 334 334 333 332 332 332 334 335 338 339 339 341 341 342 342 342 340 339 339 343 343 342 342 340 339 338 331 325 321 315 310 307 310 326 340 336 323 320 327 340 337 335 334 333 333 333
300 301 307 313 307 306 312 316 318 315 315 315 314 314 314 314 313 314 313 314 315 315 315 316 316 315 315 316 317 317 319 319 320 321 325 329 332 332 333 334 333 333 333 331 330 331 332 333 333 335 337 339 340 341 340 340 340 339 338 338 339 338 338 337 334 331 328 326 324 321 318 316 316 313 305 296 305 327 321 314 315 322 322 334 335 334 333
301 310 315 316 316 314 314 316 317 318 317 313 311 310 310 311 312 313 313 312 312 312 313 315 314 314 315 315 316 316 317 318 320 321 323 325 329 333 334 333 333 333 332 331 331 330 330 331 331 333 337 338 339 340 340 339 339 338 337 336 335 335 334 334 333 331 330 329 327 325 325 323 322 318 317 313 298 298 304 308 312 310 310 313 317 322 332
315 317 316 318 314 312 315 318 318 318 319 315 313 313 312 311 310 311 311 312 311 311 312 313 314 314 314 315 316 314 314 316 318 320 323 325 328 332 335 334 333 334 334 333 331 331 332 333 333 334 337 338 338 340 340 340 339 337 336 334 332 333 331 332 331 329 331 329 328 326 327 327 327 325 324 321 318 302 297 301 302 304 306 309 310 311 316
311 317 319 318 318 318 320 319 319 321 322 321 318 316 314 312 312 312 311 312 312 312 311 312 313 314 314 314 314 313 313 315 318 320 323 324 326 328 330 332 332 333 334 335 334 333 334 335 335 337 338 338 342 341 341 341 340 339 340 338 335 334 333 333 333 332 330 329 328 327 326 326 326 326 325 325 319 317 311 299 296 295 295 297 301 304 306
319 318 320 319 318 318 319 318 317 319 321 321 319 318 319 320 317 315 314 314 314 314 313 313 314 315 315 313 312 312 313 315 318 319 319 321 323 325 326 328 331 333 335 335 335 336 336 336 334 334 335 340 342 342 341 342 342 340 340 338 336 335 335 334 333 332 330 329 328 327 327 326 326 325 325 325 323 322 320 320 318 308 300 296 295 297 294
320 320 319 312 312 313 317 314 314 319 319 319 317 315 316 316 318 316 315 316 315 315 315 314 313 315 316 314 313 313 312 315 316 316 318 319 321 322 323 325 328 332 333 333 334 336 337 337 337 335 335 338 340 340 340 341 340 339 339 338 338 341 341 338 333 332 331 330 329 328 328 327 326 325 324 324 325 324 324 323 321 319 315 310 299 294 301
316 317 317 309 308 311 314 317 318 319 318 316 315 314 314 313 313 313 313 313 314 314 315 315 316 316 316 314 310 310 312 313 313 315 317 319 320 321 320 320 321 326 330 331 331 332 333 332 335 335 335 335 336 341 341 340 339 339 339 340 340 338 338 337 334 333 332 331 330 329 328 327 326 325 325 325 325 325 323 323 319 314 309 304 304 301 296
313 315 315 315 315 316 317 318 318 317 317 316 317 314 313 311 311 312 312 312 313 314 315 316 318 318 318 316 313 311 311 312 314 315 316 319 320 319 318 317 316 319 324 328 329 330 330 330 330 330 332 337 337 340 342 342 341 341 340 339 338 337 336 336 335 334 333 332 331 330 328 326 326 325 325 325 325 324 323 320 317 313 307 305 306 307 307
312 314 315 314 314 314 313 313 314 316 317 317 316 315 314 312 310 310 311 311 312 313 313 315 317 318 318 316 315 314 313 313 314 315 317 318 319 318 314 313 313 315 319 322 326 327 327 329 330 330 331 333 337 339 339 339 340 340 338 338 337 336 336 335 335 334 333 332 331 329 328 328 327 326 326 325 325 324 321 318 315 311 309 310 313 312 309
312 314 314 314 314 313 313 312 313 314 315 316 316 316 315 314 311 310 309 310 310 310 311 314 316 318 318 316 314 314 314 314 315 316 316 317 320 320 317 314 312 313 315 320 324 325 326 327 328 330 332 332 332 334 335 335 337 338 337 336 335 328 327 329 330 334 332 332 331 331 330 328 327 326 326 325 325 322 320 318 315 313 313 312 312 312 310
313 313 312 312 312 312 311 312 312 313 313 314 313 312 312 313 312 311 312 311 310 311 312 314 316 317 318 317 316 313 312 313 315 316 317 317 319 322 320 317 317 320 318 322 325 325 326 327 328 329 332 331 331 332 333 333 333 333 334 338 333 332 329 327 330 329 331 332 331 330 330 328 327 327 327 326 324 321 319 317 315 314 313 313 313 311 309
311 309 309 310 311 311 310 311 311 311 312 312 313 313 314 314 314 315 314 315 315 315 314 313 314 316 316 316 316 316 314 314 315 317 318 318 320 322 323 321 317 317 318 321 325 327 328 328 329 331 332 332 331 332 332 332 332 332 332 332 332 332 334 327 327 329 332 330 328 329 329 329 329 328 327 327 325 322 320 318 317 315 315 314 313 311 309
312 311 312 313 312 310 309 310 312 312 313 314 313 314 314 314 314 314 314 315 316 317 315 315 317 318 317 316 316 317 316 314 315 316 316 318 320 322 323 323 320 318 318 321 324 326 327 328 332 332 333 334 334 333 333 332 332 332 332 331 330 328 328 327 327 330 329 329 329 332 330 329 328 328 328 326 324 321 321 319 319 317 315 315 312 311 305
316 316 318 317 317 317 317 314 312 312 312 312 312 312 313 314 314 316 318 315 314 315 316 318 318 319 318 317 317 316 316 314 314 315 316 317 318 321 324 325 324 322 322 323 324 325 326 324 333 332 332 333 333 333 332 332 331 330 331 331 331 330 331 330 329 329 329 329 329 327 327 326 326 330 329 326 324 323 322 321 320 319 317 316 314 312 308
316 315 314 314 314 315 315 315 314 314 312 312 312 313 314 314 314 314 314 315 316 317 317 317 316 316 316 316 316 317 317 317 316 315 316 318 319 320 322 323 324 323 322 322 325 327 328 328 340 339 334 333 332 332 332 333 333 331 330 330 331 331 330 330 329 329 328 329 328 327 327 328 328 327 328 326 325 324 323 322 321 320 319 317 314 312 310
315 314 313 313 313 314 314 314 314 314 314 314 314 314 314 314 314 315 316 316 316 317 317 317 316 316 316 316 317 318 319 318 319 318 318 319 320 320 320 320 320 321 321 320 323 327 328 328 338 338 334 331 332 331 332 335 329 329 329 327 327 328 327 327 327 326 326 327 327 327 327 327 325 326 328 325 324 324 323 322 322 320 318 317 315 313 310
313 314 313 313 314 314 314 315 316 315 315 314 315 316 316 314 314 315 315 316 316 316 317 317 316 316 317 318 318 318 318 319 320 320 319 319 319 319 319 319 319 320 320 320 323 327 329 333 335 330 327 327 327 328 333 342 337 329 326 328 328 327 326 324 323 324 324 324 325 324 324 324 324 325 325 324 324 323 323 321 320 319 317 316 315 313 312
313 313 314 314 314 314 314 315 316 315 315 313 313 314 316 316 316 315 315 315 317 318 316 316 316 316 316 315 315 317 317 318 319 319 319 319 319 318 318 318 319 321 322 325 325 326 329 329 328 325 326 326 327 328 335 340 338 328 328 326 325 325 325 324 323 323 323 323 323 322 322 322 321 322 322 322 323 323 323 321 320 319 317 316 315 313 313
311 311 312 312 311 312 313 313 314 314 315 315 314 313 314 314 313 313 313 314 316 317 315 315 315 315 315 315 315 315 316 317 318 318 318 318 318 318 319 320 321 322 324 327 323 324 328 330 325 321 322 323 325 328 332 335 333 327 326 326 326 325 325 324 323 323 323 323 324 324 322 321 321 322 320 320 321 321 321 321 319 318 317 316 315 315 315
310 310 311 310 310 310 309 309 310 311 313 315 315 315 314 312 311 310 310 311 313 316 315 315 315 315 314 314 315 315 316 317 318 317 318 317 316 316 316 316 320 322 321 321 322 324 325 326 325 321 321 323 324 332 327 331 324 323 324 324 325 325 324 323 323 323 322 322 322 321 321 321 321 321 319 320 319 320 320 319 318 317 317 316 316 316 315
309 309 309 309 309 309 309 309 309 309 309 311 314 314 312 312 312 311 312 311 311 312 314 319 323 317 315 316 316 316 315 315 315 315 316 317 315 315 315 316 321 322 326 323 322 320 318 319 321 328 324 324 324 331 332 326 321 322 323 324 324 325 324 324 322 321 322 321 321 320 320 319 319 318 317 318 318 319 319 318 318 317 318 317 317 316 316
311 310 309 309 308 308 309 310 310 309 309 310 310 311 312 313 312 311 311 311 311 310 311 313 318 318 316 314 313 313 313 314 314 312 311 312 314 317 317 318 320 323 328 324 321 315 317 317 319 321 330 328 327 331 328 320 320 321 322 323 325 323 322 322 321 320 319 320 319 319 318 318 318 315 315 315 316 317 318 318 318 318 318 317 316 315 314
311 311 310 309 308 309 308 308 308 309 308 309 310 310 310 310 312 313 312 311 311 311 309 310 312 313 315 314 313 311 311 312 311 311 310 310 311 312 315 320 320 326 328 323 319 318 316 318 319 326 331 332 330 329 320 318 320 320 321 321 321 321 321 318 319 318 318 318 318 316 316 316 316 316 316 316 316 316 316 316 317 317 316 316 315 315 314
310 311 312 311 311 311 309 309 309 308 308 309 310 311 310 310 311 312 312 311 312 312 312 309 309 309 309 310 310 310 309 310 311 310 308 308 308 309 315 324 318 321 323 326 319 318 316 320 324 328 331 330 329 327 317 317 317 321 321 319 319 320 320 318 318 319 319 319 319 319 317 316 318 319 318 317 316 315 313 313 315 316 316 315 315 314 313
310 310 311 316 310 309 309 310 310 311 310 310 309 311 311 310 311 312 312 310 310 310 309 310 309 309 308 308 309 309 308 309 309 311 310 310 311 312 318 323 318 323 324 325 320 320 320 327 326 326 327 327 327 318 316 318 318 315 316 317 320 322 319 319 319 318 318 317 317 316 316 316 316 314 315 314 315 314 313 314 313 314 315 314 314 314 313
310 310 310 310 310 311 311 311 312 310 309 308 307 307 309 310 310 310 311 310 308 307 307 308 309 310 310 309 308 307 306 306 307 309 309 309 312 316 321 323 323 323 321 318 319 318 320 321 324 325 324 324 323 315 316 316 316 316 315 314 314 315 317 316 316 317 318 317 317 319 320 318 316 315 314 315 313 312 311 311 309 309 309 311 311 312 311
310 309 310 310 310 310 310 310 309 308 307 308 308 309 309 309 309 309 309 309 307 307 307 307 308 309 310 309 310 311 309 306 304 305 308 308 309 310 313 314 316 319 317 317 317 320 320 320 320 321 322 322 316 314 314 316 316 316 315 315 314 313 313 313 314 313 314 316 315 314 313 313 314 314 314 311 311 311 310 310 310 309 308 308 308 307 308
310 309 309 309 308 308 308 307 307 309 307 308 308 308 309 308 308 308 308 308 307 306 305 306 306 306 308 312 310 308 311 311 307 304 307 309 309 309 310 315 318 316 312 309 308 309 315 316 317 318 318 319 313 314 314 314 315 314 313 313 312 312 312 312 312 312 312 312 312 313 313 314 313 314 315 314 314 312 313 312 310 308 307 306 306 307 307
309 307 305 304 304 304 304 304 304 304 305 307 305 306 306 306 305 305 306 305 307 310 304 305 305 306 305 306 306 307 308 309 309 308 308 309 309 307 308 310 312 313 312 307 306 305 312 313 315 316 314 310 312 313 313 313 312 313 312 311 310 309 309 309 310 310 310 312 311 311 311 311 311 313 312 310 310 310 310 310 310 310 310 309 308 307 307
307 306 305 307 305 305 304 305 306 306 304 304 305 307 307 305 305 308 308 308 304 306 303 303 303 305 305 305 305 306 306 307 310 313 307 307 309 312 311 309 309 310 307 305 304 302 302 304 308 311 311 311 310 311 310 310 310 310 310 308 307 307 307 307 307 307 307 308 308 308 308 308 309 310 310 310 310 310 309 309 308 307 307 306 306 307 307
306 305 304 304 304 304 304 304 304 305 305 305 304 304 304 303 303 303 304 310 304 302 302 300 300 302 305 306 307 306 307 308 307 306 311 308 306 303 308 309 304 306 303 302 301 301 301 305 311 314 313 309 309 309 311 311 309 308 308 307 306 304 305 305 305 304 303 304 304 304 304 305 305 305 306 307 307 307 308 308 308 309 310 309 308 308 306
Wind_Speed
17 15 17 13 4 7 11 14 11 16 17 17 17 14 7 11 9 12 3 7 7 7 8 8 11 8 3 10 12 15 15 12 8 12 16 15 14 13 13 13 14 15 15 16 17 17 18 18 18 18 17 16 15 15 16 16 16 18 17 17 17 18 18 18 19 18 16 15 15 15 16 15 16 15 15 14 13 13 13 13 12 13 13 12 12 11 11
18 16 18 17 13 7 6 13 14 15 19 19 20 17 11 14 8 8 10 9 10 9 9 9 11 8 6 7 6 3 3 13 13 12 12 16 18 17 16 16 15 16 18 17 17 18 17 17 17 16 16 16 17 18 17 17 18 18 16 17 17 18 19 19 17 16 16 15 15 15 16 16 16 16 15 14 13 13 13 14 13 12 12 12 12 13 13
17 19 17 20 17 10 8 7 13 15 15 18 18 13 9 8 5 3 7 8 10 8 6 6 6 4 4 1 2 8 6 5 10 11 11 12 13 14 15 16 17 16 17 18 18 18 17 17 18 17 17 18 17 18 17 17 18 17 16 17 18 18 19 18 15 15 15 15 15 16 17 16 15 15 15 14 13 13 13 13 14 13 12 12 13 13 13
13 16 20 20 21 14 10 9 7 9 15 16 13 12 7 6 6 6 7 8 9 9 7 7 5 5 6 4 4 5 6 5 5 9 11 15 16 15 14 12 11 13 15 15 15 15 16 16 17 16 16 16 16 17 17 18 18 17 17 18 19 19 19 16 16 17 16 16 16 17 16 16 16 15 14 14 14 14 13 14 13 12 12 13 13 13 12
10 14 17 21 19 12 9 16 15 9 5 5 6 9 12 13 10 9 8 10 8 12 10 8 6 7 6 6 6 3 3 6 8 9 11 11 11 12 11 10 11 12 14 15 15 15 15 16 17 18 19 16 17 19 19 20 17 16 18 18 18 18 17 16 17 17 16 16 17 16 17 17 15 13 14 14 14 14 15 14 12 13 13 13 13 13 13
5 15 14 12 11 14 16 4 11 12 8 8 5 5 6 8 7 7 10 13 11 9 6 7 9 9 5 4 4 1 7 10 7 7 9 14 16 15 15 17 17 15 13 12 14 17 18 19 20 20 18 19 20 20 20 18 17 18 18 18 18 18 17 17 17 17 16 17 17 17 16 15 14 15 15 16 15 14 13 12 12 13 14 15 13 14 14
7 9 14 11 15 13 3 6 13 13 12 12 8 8 6 5 8 2 1 2 4 9 11 11 6 3 8 14 14 13 14 7 3 10 10 7 7 11 13 11 13 18 19 17 17 16 15 16 15 14 14 15 16 15 15 15 17 18 19 18 17 16 17 17 17 17 17 17 18 17 16 15 15 16 16 14 15 14 13 13 14 15 15 15 14 14 14
4 3 11 12 8 3 1 1 1 5 11 11 16 8 6 7 7 1 5 1 2 1 4 6 7 13 13 15 14 13 9 8 8 6 5 5 10 11 10 15 18 17 16 19 18 17 16 15 15 16 18 18 17 16 14 15 15 17 17 17 17 16 16 17 17 18 18 17 17 16 16 16 16 17 16 16 16 14 13 12 12 12 12 12 13 13 13
5 3 7 6 1 1 4 2 2 2 6 10 11 7 3 6 6 4 2 3 3 3 3 1 6 12 15 14 12 14 12 11 8 6 5 5 5 3 4 5 6 6 9 11 14 16 16 17 17 17 17 17 17 15 14 15 15 16 16 16 17 17 18 18 18 18 18 18 17 17 17 17 17 17 16 16 14 12 13 13 13 13 14 13 12 12 13
2 4 4 3 5 6 4 3 3 0 2 11 15 12 1 7 9 4 1 5 4 5 4 4 1 4 14 10 7 10 11 11 11 9 10 11 7 4 4 4 4 5 7 8 7 6 7 9 13 13 14 14 15 14 15 15 15 15 15 17 17 17 17 18 18 18 18 18 18 17 17 18 18 16 16 14 15 13 15 14 14 14 12 10 10 11 12
7 3 5 3 5 5 6 2 1 2 10 14 8 11 2 4 4 5 1 8 5 7 7 4 4 7 6 2 1 4 7 10 10 9 9 7 6 6 7 4 4 5 6 7 9 9 8 9 10 10 11 12 13 14 15 16 16 16 17 17 17 17 18 18 17 17 17 18 18 18 18 18 17 17 16 15 14 13 13 13 13 11 10 10 9 9 11
6 4 3 2 2 2 4 5 3 7 5 6 9 7 5 1 3 3 3 8 5 4 5 10 13 7 7 2 0 1 5 5 7 9 10 10 10 8 6 5 4 5 5 5 5 6 9 12 10 8 9 11 13 15 15 15 15 17 19 19 19 19 18 16 15 16 16 18 18 18 18 17 16 16 14 13 13 13 12 11 10 9 9 9 11 10 10
10 7 2 2 1 1 2 4 2 5 5 6 7 7 8 4 1 1 4 7 5 6 9 7 9 3 4 3 1 2 2 4 8 10 8 7 7 9 8 7 10 5 4 6 9 11 11 11 9 9 12 13 15 16 16 14 16 18 19 18 17 15 13 13 15 17 16 17 19 18 17 16 15 14 13 13 13 12 11 9 8 8 10 9 10 10 10
3 5 6 3 1 1 2 3 0 0 4 6 5 3 2 8 5 4 5 7 6 8 10 8 8 5 4 3 2 4 7 6 3 5 8 9 10 7 5 6 8 6 5 1 4 6 6 6 4 2 3 9 15 15 14 16 20 20 18 15 13 13 14 16 16 16 16 15 16 15 15 14 13 13 12 12 12 12 9 9 11 10 9 8 8 7 6
5 3 4 3 6 2 8 9 4 6 5 3 8 9 7 6 7 8 7 7 6 7 9 7 6 4 6 7 7 7 8 9 9 8 9 9 7 8 10 10 9 6 5 2 2 2 3 4 6 7 10 10 8 7 10 17 17 15 12 13 13 13 13 14 14 16 15 17 15 13 14 15 15 14 11 11 10 10 10 10 11 10 9 8 7 7 6
4 5 4 3 4 14 20 8 3 2 5 12 12 12 10 5 7 7 8 7 6 7 9 9 9 8 8 8 7 6 8 10 10 9 10 10 11 11 9 7 7 8 5 6 2 3 3 3 4 6 9 10 10 10 11 3 2 1 4 7 9 11 12 14 14 13 14 15 15 14 15 14 13 13 12 11 11 11 11 12 11 10 8 8 8 8 8
3 3 2 7 13 12 11 3 10 11 11 9 12 13 11 10 7 4 9 7 6 7 9 9 8 8 10 9 9 10 10 9 10 10 10 11 11 11 11 11 11 9 9 7 9 10 8 6 1 4 7 9 8 12 8 8 9 9 7 7 10 11 12 12 13 12 13 13 14 14 15 16 14 13 12 12 11 8 9 8 8 9 8 8 8 8 7
7 6 3 10 11 12 15 14 9 15 15 12 13 14 12 7 7 6 9 7 7 5 5 11 9 9 7 8 9 10 9 9 8 7 8 10 11 11 11 12 12 9 9 9 10 10 11 12 9 9 6 1 9 7 5 6 9 10 11 9 7 8 9 10 12 14 14 13 13 14 14 12 13 12 14 12 10 9 9 8 8 9 8 8 8 8 8
5 3 9 14 12 11 14 13 13 12 11 10 11 13 12 10 10 10 9 9 9 8 8 10 10 9 8 9 8 7 7 8 9 9 9 10 9 10 10 10 9 8 8 9 11 11 12 12 11 10 9 10 10 9 5 3 9 11 11 12 12 11 10 8 10 11 14 13 11 11 10 9 8 9 9 9 10 10 10 10 9 9 10 9 8 8 8
2 3 4 13 10 7 12 12 11 12 11 12 12 12 11 11 10 10 9 9 10 8 10 8 11 10 7 9 9 8 9 8 8 8 9 9 10 10 8 8 7 6 9 11 12 12 12 11 9 8 9 10 9 9 9 9 9 7 6 8 9 7 8 9 11 10 11 15 15 10 9 10 10 9 8 8 10 10 10 11 10 9 9 9 9 9 8
2 6 6 10 7 13 17 16 14 10 8 8 12 13 14 14 14 12 11 10 9 10 9 7 11 14 10 10 9 11 9 10 9 9 8 8 9 8 10 9 8 7 8 9 10 11 10 8 8 9 8 8 9 11 10 8 11 13 11 11 7 9 9 4 6 4 3 8 11 13 13 14 11 8 4 7 9 7 4 3 10 11 9 8 8 8 10
0 0 4 7 5 5 11 14 12 11 8 6 8 8 11 11 12 13 15 12 10 11 9 9 12 13 9 8 8 11 11 11 11 12 11 10 9 9 8 7 8 5 6 8 10 9 7 6 7 7 7 6 6 7 8 9 10 14 13 11 9 7 6 9 10 9 6 7 11 13 14 12 12 11 16 15 9 6 5 5 7 10 14 10 10 9 9
2 1 3 5 6 9 7 7 12 13 10 5 7 8 9 8 7 8 13 14 12 11 9 7 11 11 10 8 10 13 12 11 11 12 13 12 10 9 9 8 9 9 9 8 5 6 4 4 3 4 3 5 5 5 5 8 10 13 14 12 11 9 7 8 8 8 7 8 9 10 11 13 14 13 10 12 17 15 8 7 10 13 12 14 15 14 13
3 2 4 4 6 6 6 9 13 12 11 7 7 9 8 8 6 7 9 9 12 9 9 9 8 9 10 8 11 12 11 11 13 13 13 14 13 11 10 10 10 10 9 8 7 6 3 4 5 4 3 4 4 6 7 8 10 9 11 13 13 12 11 9 9 6 6 7 9 11 10 11 11 10 10 10 10 15 16 13 13 12 13 16 17 15 15
1 0 2 5 6 7 4 4 10 9 8 7 7 9 9 9 9 7 7 7 5 9 10 9 7 7 10 9 10 11 11 11 10 11 13 15 16 15 14 16 15 12 10 8 6 6 7 7 8 7 5 3 2 5 8 9 11 12 11 12 13 12 12 13 12 11 9 8 9 10 9 10 9 9 9 10 11 9 11 16 18 16 15 14 11 10 9
2 5 3 6 7 6 4 7 10 8 7 8 8 8 9 11 9 8 8 6 7 7 8 7 8 7 7 8 8 8 12 12 11 12 13 14 14 14 14 13 13 12 11 10 10 8 7 6 7 8 8 7 6 4 5 5 8 10 10 13 15 12 11 11 10 9 9 9 10 10 9 9 8 7 7 8 8 8 9 8 10 12 15 15 12 12 12
3 1 1 7 8 8 4 10 7 4 6 6 8 7 7 6 8 7 6 8 8 7 7 6 4 4 5 6 7 8 10 8 11 11 10 13 12 9 9 11 13 13 13 11 11 12 13 10 9 10 9 8 6 7 10 10 9 8 9 9 9 12 17 11 8 9 9 10 9 10 10 10 11 11 9 7 9 9 8 8 8 7 4 5 11 11 7
5 3 3 3 8 7 7 9 13 10 7 7 7 7 5 5 7 9 10 9 10 9 8 7 6 5 7 5 5 7 8 11 10 8 11 11 7 6 9 11 12 12 13 13 12 11 12 13 11 10 10 8 8 2 11 12 11 10 7 8 8 8 8 10 9 8 8 9 9 9 8 8 8 8 8 8 7 6 6 7 8 8 6 4 4 5 11
10 8 2 2 6 7 7 8 13 14 9 6 4 3 4 7 6 8 8 7 5 5 8 8 7 7 7 6 6 8 7 7 10 10 8 7 8 9 8 9 11 13 13 13 12 11 12 12 12 13 11 7 5 4 10 10 9 9 8 8 8 8 7 7 7 7 7 8 7 7 7 8 8 8 7 8 8 8 7 7 6 5 6 5 5 5 7
12 11 6 5 8 8 10 10 11 11 11 8 6 5 3 4 6 6 6 6 6 7 5 4 7 7 7 8 7 6 7 7 6 5 7 8 8 8 8 8 13 14 15 15 14 11 11 10 11 12 10 8 8 7 9 10 9 9 9 9 8 8 7 7 7 7 7 7 8 10 9 8 7 7 7 6 7 8 9 8 8 8 8 6 6 7 7
15 12 10 8 11 11 12 10 10 9 8 6 5 6 5 5 7 6 6 5 5 5 5 5 5 6 7 6 5 5 5 5 5 5 6 6 7 9 10 13 12 10 9 10 10 11 11 11 11 10 9 9 10 9 9 8 7 8 8 7 7 10 12 11 8 7 7 7 7 7 7 7 7 7 7 7 6 6 7 8 8 7 7 6 6 6 6
13 11 11 10 8 13 13 11 11 10 9 8 8 7 4 4 6 6 4 4 3 3 4 6 6 6 4 4 4 5 6 6 6 7 7 7 8 7 8 10 10 8 7 8 9 10 10 10 11 9 8 10 10 10 9 8 7 7 7 6 8 7 8 11 7 8 7 6 6 7 7 7 7 6 7 6 5 5 6 8 7 7 7 7 6 5 6
10 9 7 8 9 11 11 10 11 10 9 9 6 5 7 8 6 4 3 2 3 4 4 4 4 4 4 4 4 5 5 5 5 6 7 7 7 7 6 6 7 8 7 7 8 9 10 10 9 8 9 9 10 10 10 8 7 6 6 6 6 5 5 6 8 8 7 7 6 5 6 6 7 7 7 7 6 6 5 6 6 6 6 5 5 5 6
8 6 4 2 3 8 10 9 6 7 6 5 5 7 9 8 7 7 6 5 4 2 2 4 4 4 4 5 5 5 5 6 8 7 6 6 5 5 5 6 6 6 5 6 9 10 9 9 7 7 7 7 8 8 8 9 8 7 6 7 6 7 6 5 5 5 6 5 6 7 6 7 7 7 7 7 7 7 6 6 6 6 5 4 4 5 6
5 5 3 6 5 3 3 5 6 7 6 6 6 6 7 7 8 8 9 8 7 6 3 2 3 3 4 5 5 5 6 6 6 6 6 6 6 4 5 6 6 6 7 9 8 7 6 6 5 4 6 7 8 8 8 8 7 7 7 8 7 6 6 4 4 5 5 6 5 5 6 6 7 6 7 8 7 7 6 6 6 6 6 6 5 5 6
3 5 5 4 6 8 10 9 7 6 5 5 6 7 8 8 9 9 8 7 7 8 7 7 6 6 6 5 5 4 5 4 4 5 7 7 6 5 6 7 7 7 6 7 7 6 4 5 10 10 5 6 6 6 7 6 5 6 5 5 5 6 6 5 3 3 3 5 6 5 6 7 7 7 8 8 7 7 7 7 7 6 6 6 6 6 6
7 6 5 5 7 9 9 9 9 9 9 8 7 7 8 8 7 5 6 7 7 7 6 7 8 8 7 6 7 6 5 4 5 5 5 5 6 7 7 7 7 7 6 8 7 5 5 3 7 11 6 5 5 4 1 4 4 2 2 2 3 4 5 5 5 5 4 2 3 4 6 7 6 6 7 8 7 8 7 7 7 7 6 6 6 6 6
11 11 10 9 9 10 9 8 9 9 9 9 7 6 6 6 6 6 6 6 6 6 7 8 7 6 7 8 8 8 8 7 7 6 6 6 6 9 9 8 8 7 8 6 5 6 7 10 13 8 7 6 6 6 6 2 6 3 3 3 5 5 5 5 5 5 5 5 4 5 6 6 3 3 7 6 7 7 7 7 7 7 7 6 6 6 7
10 9 9 8 8 9 9 9 9 8 8 8 7 7 6 6 5 6 7 6 5 6 8 7 7 9 9 9 8 7 7 6 6 7 7 6 7 9 8 7 6 6 5 5 6 7 7 8 5 7 7 6 7 7 7 3 5 3 4 5 4 4 4 5 6 6 6 5 5 3 5 6 4 7 4 4 6 6 6 7 7 8 7 7 6 6 6
7 8 9 9 9 8 8 8 8 7 6 6 7 6 5 6 6 6 6 6 5 5 6 6 8 8 8 8 7 7 5 5 5 6 7 6 7 8 8 9 8 6 7 10 7 6 10 13 9 7 7 6 6 5 4 3 5 4 5 5 4 5 4 4 5 6 5 5 6 5 4 5 5 6 2 4 7 6 7 7 7 7 7 7 7 6 6
9 8 8 8 8 8 8 7 7 6 6 6 6 5 5 6 6 7 7 6 5 6 6 6 7 7 7 7 8 7 6 6 6 6 6 6 8 7 8 7 5 5 6 6 6 6 9 9 7 7 7 7 7 6 5 5 4 2 2 2 4 6 5 5 5 5 5 5 5 5 5 5 6 7 4 5 5 7 7 7 7 7 8 8 7 7 6
8 8 9 8 8 8 7 7 7 8 7 7 6 6 6 6 6 7 6 6 6 6 6 6 8 7 5 6 6 6 7 6 7 7 6 7 6 6 7 6 5 5 9 9 8 8 7 7 6 6 6 7 6 11 10 3 4 5 3 3 3 3 3 4 4 4 4 4 4 4 3 1 3 5 6 7 7 6 7 7 6 6 5 6 7 7 7
6 7 7 7 6 6 6 6 6 6 6 7 6 6 5 5 7 7 8 7 7 7 7 6 7 7 6 5 5 6 6 5 6 6 6 6 4 4 5 3 3 6 11 6 6 5 6 5 6 6 10 10 9 14 10 6 5 5 6 6 6 6 5 5 4 4 3 3 2 1 3 6 1 1 3 3 5 7 7 6 7 7 6 6 7 6 6
7 6 6 7 6 6 6 6 7 7 8 7 7 6 7 6 5 6 8 9 9 8 8 8 8 7 6 6 6 5 5 5 6 6 6 7 8 8 6 4 4 6 10 5 6 6 6 6 6 9 12 14 15 13 8 6 5 4 5 4 5 8 4 5 5 5 7 6 5 4 2 4 5 2 3 5 7 3 4 7 7 8 7 7 7 6 7
10 9 9 10 9 10 9 9 8 7 5 5 9 10 9 8 7 7 8 9 9 9 8 9 8 8 7 7 6 5 5 4 4 6 7 8 8 8 8 7 8 6 8 10 4 6 7 8 12 16 13 13 13 12 6 6 6 6 4 3 5 6 7 7 7 3 4 5 6 2 1 2 5 7 5 4 4 5 6 6 7 7 8 7 7 7 7
11 11 10 10 10 8 7 9 9 9 11 11 11 11 10 9 9 8 8 9 9 8 7 6 6 6 7 7 6 8 8 8 8 7 5 4 6 5 6 9 7 10 17 17 9 10 10 19 19 17 17 17 14 8 6 4 5 5 5 5 5 3 3 4 3 2 2 1 0 2 6 6 2 3 5 6 5 6 6 6 7 7 8 8 7 7 7
9 9 9 8 8 8 9 9 10 11 11 11 10 9 9 10 10 8 8 8 9 9 9 9 9 8 7 7 7 6 7 8 9 9 7 7 8 8 10 14 15 19 15 11 11 11 11 13 15 18 18 18 15 8 6 6 7 6 6 6 6 6 6 4 2 5 4 3 3 2 2 1 1 2 4 5 5 6 6 6 7 8 7 7 7 6 6
9 9 9 9 9 9 10 10 10 9 9 7 6 7 8 9 9 8 7 8 8 9 9 9 8 9 10 10 9 8 6 7 9 8 7 6 7 8 8 8 11 17 17 15 17 17 23 21 20 19 19 18 11 9 10 9 9 8 8 9 9 9 8 6 6 5 3 3 5 4 4 3 1 0 0 2 4 6 6 6 6 6 6 7 7 7 7
8 9 9 10 11 11 10 10 9 9 8 7 8 8 7 7 8 8 8 7 8 7 7 7 7 6 7 8 8 7 7 7 7 5 5 7 8 8 8 10 17 17 11 10 10 9 16 19 18 18 18 14 9 10 10 9 10 10 10 10 9 9 9 9 8 8 9 9 8 7 5 5 4 3 4 5 5 2 1 4 5 5 6 6 7 7 8
8 9 10 9 10 10 9 8 8 6 6 7 7 7 6 7 8 7 6 6 7 7 8 7 6 6 6 6 6 6 6 6 7 7 7 8 8 9 9 9 10 15 15 10 8 9 12 17 16 17 14 9 10 10 9 10 10 10 10 11 10 9 11 12 11 13 10 9 9 9 9 9 9 10 9 8 7 4 3 3 2 5 10 9 7 8 8
8 8 7 8 9 9 10 8 6 6 7 8 8 8 8 8 8 9 9 9 8 9 9 10 10 9 8 7 6 6 5 6 7 8 7 7 7 9 10 8 9 8 8 9 8 8 7 8 8 10 10 10 10 10 9 9 9 10 11 10 11 10 10 11 10 10 10 10 9 9 9 9 9 9 9 8 8 8 8 5 5 3 2 3 3 6 8
7 6 7 8 8 9 10 11 11 10 9 9 9 9 9 9 9 10 11 15 12 10 10 11 12 11 11 10 10 9 8 7 6 6 6 6 6 6 6 8 6 6 6 6 6 6 6 7 9 12 11 9 8 8 10 13 11 10 10 10 10 11 11 10 10 10 11 12 11 10 11 10 9 10 10 10 10 11 10 10 10 10 9 7 7 6 4
Wind_Direction
209 199 217 209 208 204 197 202 195 199 202 195 197 206 184 153 192 218 203 186 198 246 235 240 243 227 173 215 202 187 188 192 190 191 193 195 196 192 190 190 183 184 183 183 184 185 187 188 187 188 189 193 192 192 191 190 189 192 190 189 190 190 191 195 197 194 192 194 195 195 196 198 201 204 204 204 202 199 198 201 203 203 199 196 193 195 194
205 203 209 220 199 194 206 210 201 193 195 204 203 202 189 181 204 177 184 186 204 213 227 229 242 231 212 198 201 329 251 188 179 177 187 194 196 192 190 189 188 188 188 184 184 185 189 188 188 188 190 192 192 192 193 191 193 194 186 191 191 192 195 199 195 190 191 192 193 194 196 199 201 201 203 202 201 201 200 202 203 201 199 194 195 195 193
207 204 204 218 214 173 196 218 218 207 201 203 204 206 196 185 217 168 197 199 226 245 213 225 255 269 263 69 140 182 203 209 166 166 186 198 200 198 195 190 190 190 189 187 186 186 188 188 188 188 191 193 194 195 193 192 195 192 187 191 194 195 200 198 189 188 190 193 191 195 199 199 200 201 201 201 202 202 202 202 202 199 196 195 197 197 195
211 202 202 209 224 209 200 218 219 217 200 194 198 204 192 161 195 182 175 210 230 269 265 247 218 198 193 191 183 182 168 185 193 190 192 191 194 195 196 198 197 193 190 187 185 187 188 190 192 192 193 193 191 195 194 196 197 190 190 193 195 198 200 191 187 189 192 191 191 196 196 200 200 200 199 200 202 202 202 202 202 198 196 199 199 196 196
210 202 198 203 215 232 234 223 214 178 181 225 215 216 203 203 187 187 197 219 208 217 215 219 221 186 226 184 194 176 221 179 177 188 186 190 194 187 186 186 187 190 192 187 185 187 188 194 195 197 193 189 194 197 196 199 192 189 194 196 197 199 196 189 190 191 191 190 194 195 197 198 197 196 198 201 202 201 204 204 199 198 200 198 199 197 196
235 182 193 188 195 217 231 176 162 177 184 158 175 226 242 246 196 203 201 207 206 193 201 197 215 188 208 226 244 183 173 181 191 207 197 186 184 190 190 187 183 188 187 190 192 190 193 197 197 197 192 192 198 199 197 193 187 192 195 198 197 197 192 192 192 191 190 192 194 196 195 194 193 194 197 201 200 202 204 201 199 201 202 201 198 197 199
244 145 132 164 207 218 263 181 169 174 161 159 147 69 32 345 325 287 7 318 200 205 192 191 189 104 79 59 43 35 30 357 257 188 186 209 206 191 187 190 195 185 186 191 195 200 202 198 197 194 197 201 203 201 199 195 194 193 196 197 197 195 193 194 191 190 191 193 196 194 191 191 192 195 197 198 199 201 200 200 200 202 202 201 201 199 198
290 194 146 187 213 231 239 315 208 166 152 134 95 44 359 359 356 334 99 31 328 317 176 178 160 116 94 58 39 23 15 51 52 352 296 223 187 193 201 194 191 196 196 192 193 199 199 194 196 194 196 199 199 200 194 195 198 199 197 197 198 193 194 193 192 192 191 193 194 191 190 190 193 196 195 195 197 196 198 202 205 204 204 203 201 197 196
240 241 163 175 224 337 349 23 8 130 149 155 133 121 22 350 341 356 125 90 38 344 348 67 129 121 77 56 18 360 5 6 8 26 21 333 287 257 215 198 233 223 211 209 204 198 195 195 196 198 200 197 197 195 190 196 197 202 199 200 199 195 197 194 193 192 191 191 191 189 189 190 194 195 194 194 196 191 196 200 200 201 203 202 198 194 193
167 173 122 103 115 171 265 224 265 216 209 135 136 105 331 341 355 351 93 75 64 53 25 14 53 87 68 43 351 347 354 354 358 10 10 0 356 325 292 311 285 241 218 218 225 215 206 205 205 203 199 193 194 193 194 193 195 200 201 204 202 198 198 196 194 192 190 189 189 189 187 192 193 194 193 193 195 189 194 197 200 202 199 196 193 192 188
293 251 156 176 151 222 203 168 209 90 117 120 97 78 78 296 332 337 77 84 63 76 70 8 67 83 82 115 286 331 336 344 360 3 7 6 346 327 308 263 234 253 260 247 227 205 203 209 210 200 192 191 192 199 197 195 195 198 201 206 203 201 201 197 194 190 189 189 189 187 189 192 190 189 191 192 191 187 195 195 199 195 188 189 184 184 189
221 200 140 168 190 172 220 184 157 137 144 95 76 109 219 259 312 319 45 74 66 62 70 76 54 82 123 158 214 341 339 348 355 2 360 359 355 358 352 318 252 227 231 208 241 234 212 217 211 195 192 187 195 200 204 199 198 200 203 205 203 202 200 194 191 190 189 189 188 187 189 188 188 189 188 187 186 186 190 191 188 180 177 177 178 185 182
214 204 181 95 2 334 176 173 200 122 114 94 127 180 210 195 169 345 67 75 68 71 65 59 95 67 113 142 137 15 2 26 13 2 2 357 347 351 354 349 335 298 237 202 212 212 217 226 220 203 190 191 198 202 202 199 202 205 206 205 203 200 195 191 191 191 190 189 187 186 183 183 183 182 183 184 181 181 181 174 163 160 168 174 178 183 185
299 208 128 187 197 238 275 317 347 202 135 192 184 219 96 119 103 56 61 76 66 77 76 84 94 105 79 91 65 47 37 43 26 14 3 359 360 359 355 359 3 346 337 306 253 252 246 214 182 171 229 220 207 206 203 204 206 205 205 200 195 192 189 190 190 189 189 187 183 179 176 173 175 180 181 175 173 176 167 163 161 163 162 166 171 169 166
302 350 84 100 117 298 9 320 359 27 106 222 154 112 90 94 93 79 52 49 40 59 73 67 83 87 72 52 37 36 32 28 24 19 15 12 3 350 350 354 359 351 323 351 89 251 227 215 194 178 170 199 230 247 227 213 211 205 196 192 188 187 185 186 187 185 182 176 174 173 171 170 169 170 166 166 165 161 158 158 158 160 163 152 142 137 136
315 346 8 31 320 296 300 286 164 268 116 139 124 122 104 81 84 86 79 53 50 56 74 63 46 38 35 35 42 50 34 26 18 15 13 10 4 0 353 355 356 356 350 319 284 184 182 143 159 170 176 192 200 197 216 227 353 297 187 172 169 172 179 181 180 177 173 170 168 165 161 160 162 159 162 162 162 165 164 162 161 155 147 142 137 141 142
328 316 294 320 316 305 313 48 97 90 79 93 107 103 108 109 84 86 86 80 63 64 84 71 65 54 39 38 31 35 30 30 23 16 14 11 3 358 351 349 353 9 3 345 343 337 355 356 9 144 162 176 185 199 195 157 156 147 151 161 166 173 173 172 169 167 163 163 162 159 159 159 158 158 159 159 160 160 150 144 143 139 141 141 141 140 141
296 242 244 322 333 350 11 17 41 93 96 92 98 99 97 77 91 86 96 97 84 78 71 92 71 66 56 52 39 34 31 27 15 14 14 15 10 2 359 358 1 3 20 22 14 3 2 1 357 356 356 132 171 181 149 138 141 146 149 154 161 163 164 162 161 156 155 153 152 153 153 158 157 160 159 159 150 141 133 134 138 139 141 143 147 149 150
3 330 342 336 343 349 26 39 28 40 68 80 90 91 91 97 89 87 81 88 89 83 83 86 89 72 68 69 56 45 34 24 14 10 8 5 4 2 356 349 345 9 28 35 29 24 20 10 11 13 38 44 35 16 14 115 149 154 154 153 153 151 151 153 152 153 148 147 141 139 137 130 134 139 142 141 139 139 143 143 145 148 151 152 147 149 151
37 290 324 305 310 18 36 44 45 34 38 69 71 82 87 89 86 84 88 92 84 86 79 78 81 72 52 59 57 51 42 33 22 16 11 1 356 353 350 344 352 19 42 47 41 38 36 20 20 34 41 41 45 53 52 44 43 49 86 125 136 125 125 136 150 152 146 140 136 130 121 124 126 126 127 134 138 146 152 154 150 152 152 152 154 154 156
268 268 254 316 323 28 24 27 36 45 33 47 79 88 95 98 96 93 83 76 84 81 84 78 83 76 58 55 60 59 46 36 25 15 11 11 3 353 351 348 1 36 43 50 52 52 44 26 30 41 40 44 52 70 64 53 82 82 63 41 52 113 122 35 359 21 96 113 109 107 96 74 53 41 64 117 121 82 26 116 150 151 150 150 153 158 155
2 139 303 340 19 24 358 9 7 28 32 44 69 80 86 91 96 99 96 84 81 82 78 81 84 85 78 66 64 65 55 46 36 27 20 11 13 11 358 350 347 11 61 75 62 50 33 31 40 47 55 50 50 72 95 98 103 101 100 89 63 36 50 99 109 105 92 96 101 100 100 100 97 75 56 51 35 100 119 35 68 132 145 155 162 152 153
293 30 21 5 48 59 19 9 22 20 8 34 71 71 81 77 79 91 99 101 86 76 68 66 79 78 77 69 67 64 54 48 44 40 33 24 13 13 11 6 8 11 9 13 42 63 44 360 24 10 44 96 100 78 97 117 119 122 121 112 102 89 78 74 93 96 108 103 109 104 103 100 94 101 86 50 46 46 66 85 101 106 110 125 143 155 153
292 152 143 72 54 55 24 19 44 29 3 358 42 60 63 66 63 65 73 81 97 95 87 74 68 81 76 63 63 67 56 46 45 42 37 33 25 21 26 24 18 18 26 29 25 13 349 329 333 330 36 58 75 122 122 139 130 122 122 121 122 125 124 120 117 124 117 120 113 105 101 101 104 104 96 92 60 42 40 62 72 91 129 146 155 157 159
208 105 124 100 99 75 35 36 62 52 15 353 21 42 47 56 49 42 66 67 65 91 92 81 66 69 80 70 69 69 67 55 49 54 54 46 36 31 28 27 24 21 20 17 16 22 22 19 15 25 47 27 17 134 132 135 129 123 121 115 118 128 138 142 145 149 137 119 105 96 90 98 101 104 108 105 99 76 46 52 60 62 55 51 62 86 103
139 145 141 126 105 93 107 82 58 48 39 26 29 29 40 53 55 51 48 45 53 51 67 73 75 58 70 78 72 74 66 55 45 51 54 53 44 33 28 25 25 26 28 26 26 24 23 28 33 35 28 37 37 5 71 71 112 122 124 128 129 133 140 141 135 125 115 113 105 101 99 97 93 93 99 112 118 112 109 103 71 52 46 44 51 73 67
203 270 166 102 96 109 131 116 117 68 49 48 56 41 24 25 44 55 49 46 49 45 50 49 54 55 55 63 78 68 77 70 53 41 48 56 50 44 38 34 30 36 39 33 27 24 27 34 55 47 22 16 66 88 78 76 73 75 92 102 107 123 127 124 119 120 117 112 113 121 126 131 134 132 130 133 130 136 143 136 124 118 119 54 34 36 75
16 336 269 220 156 146 144 133 117 95 70 50 54 57 19 22 46 48 42 39 38 40 43 35 37 42 59 32 62 68 58 63 62 51 50 48 45 37 39 41 42 39 42 41 33 27 27 26 31 57 59 34 336 108 109 106 109 110 103 101 104 102 101 102 102 102 107 112 120 125 127 126 123 121 130 132 125 117 109 114 122 126 107 61 57 48 70
28 355 353 123 128 124 126 110 98 104 101 85 71 65 51 56 43 47 45 36 22 33 39 28 31 38 51 45 49 62 64 65 67 57 53 49 50 43 29 34 44 46 45 37 31 22 28 28 24 25 26 32 324 35 88 95 99 96 97 96 95 93 92 94 101 109 107 109 110 110 110 112 117 119 119 119 122 126 123 118 106 95 102 114 119 84 70
43 13 7 88 96 97 94 90 100 106 107 113 104 83 75 89 76 60 54 37 28 43 24 27 45 47 45 52 42 48 55 47 47 52 63 62 54 49 38 35 41 35 35 31 19 14 28 32 31 21 7 357 22 37 79 89 86 87 91 95 101 106 107 105 102 100 104 108 116 119 119 120 118 120 119 123 133 134 130 128 134 135 137 149 139 129 129
54 25 10 29 67 67 64 69 73 73 86 99 110 108 88 64 76 73 57 47 42 47 33 48 55 58 55 58 60 55 51 43 42 41 29 34 54 62 56 49 51 36 32 31 21 14 19 22 28 21 7 18 31 38 46 55 74 89 90 88 84 94 101 105 104 111 115 117 119 118 113 113 118 123 128 132 131 130 133 135 134 130 137 133 130 135 142
69 50 23 11 34 68 66 59 56 59 61 55 59 57 52 70 81 77 67 60 55 56 50 51 56 53 45 48 48 50 54 53 40 36 43 36 33 38 65 79 74 61 41 40 37 27 20 21 22 6 5 26 36 38 45 57 63 68 73 92 106 110 107 107 103 104 108 112 118 121 126 125 129 128 125 132 136 134 143 140 136 140 140 137 143 148 149
74 60 32 32 34 54 69 65 71 63 58 52 34 49 60 60 62 71 91 98 66 52 60 58 51 45 46 47 47 36 29 34 50 49 39 36 30 27 28 50 78 80 60 37 40 33 24 19 9 5 17 21 32 38 44 47 59 83 88 94 84 88 92 103 112 117 116 116 113 130 137 134 136 139 143 141 137 144 147 130 128 130 129 139 146 151 168
96 118 135 101 101 103 96 91 83 76 71 79 62 49 48 46 54 58 57 58 69 62 73 75 59 56 54 52 46 40 38 41 39 26 28 39 40 32 32 37 29 35 45 48 39 37 26 13 13 17 19 26 29 37 43 51 48 43 59 61 77 91 88 79 81 93 103 108 129 139 135 138 147 150 148 144 141 145 139 133 133 129 135 144 139 138 145
61 96 126 151 177 148 112 117 119 119 110 87 65 59 58 48 47 49 47 47 48 55 57 59 44 48 51 46 48 50 49 51 41 32 22 17 11 29 55 61 48 31 30 33 34 36 37 4 357 36 24 28 36 44 46 49 52 52 63 86 78 71 89 91 101 114 121 121 117 125 138 149 159 153 147 144 147 143 137 137 142 145 151 149 141 141 155
108 89 83 70 79 86 87 87 85 86 84 80 75 68 56 49 47 44 39 38 41 49 53 61 62 58 49 48 57 61 72 54 41 34 28 25 25 22 33 44 47 49 45 31 12 2 16 3 14 39 46 34 26 42 63 58 49 55 56 71 110 117 115 116 102 69 85 122 133 147 148 139 141 147 145 143 139 139 138 139 142 149 151 149 144 147 143
66 80 81 76 76 79 76 73 76 77 76 76 77 70 64 58 57 50 51 48 45 47 51 59 60 57 57 56 62 61 60 68 61 43 31 32 39 42 35 37 34 35 34 38 359 348 9 2 51 46 33 26 7 342 287 134 117 130 60 73 74 88 93 90 68 56 21 45 110 120 123 127 136 130 130 130 135 145 141 140 142 145 150 149 146 141 146
65 70 71 71 69 68 66 66 66 68 70 66 60 63 68 64 55 54 51 51 49 53 57 59 60 60 60 58 58 57 62 63 64 55 43 36 40 53 40 38 32 25 35 20 349 20 41 50 50 47 35 20 360 340 344 209 140 100 90 68 93 96 96 98 92 78 80 75 55 53 42 27 20 132 138 140 148 150 142 139 141 143 146 146 144 149 159
76 74 71 68 70 66 66 61 60 62 66 69 64 58 53 56 55 55 52 44 38 52 62 60 60 62 59 63 61 55 52 50 50 50 43 34 39 53 49 40 36 42 48 34 34 31 35 39 34 32 31 18 4 358 358 63 116 67 77 81 86 102 107 109 99 95 90 79 60 65 103 118 89 344 321 163 157 154 145 146 146 146 147 147 149 155 160
68 65 69 71 68 66 68 67 68 68 67 65 71 64 44 49 48 54 52 51 40 54 63 63 64 65 61 59 58 56 45 46 48 54 50 39 40 51 46 36 23 26 40 42 33 29 35 39 35 25 17 6 3 359 5 73 95 95 97 104 109 97 99 106 108 112 111 110 109 110 110 98 104 105 292 228 161 152 147 146 143 145 144 149 156 158 161
60 63 65 68 71 72 71 69 62 51 45 42 42 47 51 61 60 58 51 50 42 47 56 63 67 64 61 60 60 54 46 41 41 41 39 48 49 47 51 36 353 12 35 44 39 32 31 30 27 24 5 10 357 25 35 38 37 43 89 115 113 124 136 138 131 127 128 136 142 148 149 146 127 125 140 231 172 152 150 145 150 150 149 155 159 160 166
56 58 59 59 59 61 62 62 61 54 46 43 42 41 45 51 60 63 58 54 47 41 44 54 78 77 68 61 60 55 50 43 43 41 40 51 58 54 53 22 352 23 40 39 32 29 22 18 16 16 15 18 5 31 37 41 69 75 54 67 87 99 118 131 138 137 135 139 135 131 119 186 194 163 174 176 154 151 143 138 131 131 144 157 164 171 172
48 55 58 62 60 57 57 57 56 56 50 40 42 41 35 35 43 45 46 46 49 48 50 47 52 57 55 55 54 56 52 46 48 42 37 30 35 56 72 51 5 27 38 26 29 26 23 16 14 13 24 24 30 33 34 24 29 60 66 62 57 45 49 76 72 65 55 70 92 115 123 104 84 225 113 98 120 132 130 128 134 151 183 178 172 168 174
43 44 49 57 55 53 51 48 49 48 49 35 33 44 47 43 39 49 53 54 53 53 54 49 47 47 47 48 53 51 45 49 48 39 48 31 21 12 6 13 4 24 40 40 25 20 17 13 12 23 27 25 33 36 30 23 14 44 81 86 96 89 41 8 44 70 87 76 49 359 67 106 116 85 48 77 107 126 148 160 177 174 175 173 173 173 175
49 50 50 48 47 46 47 46 45 42 31 29 34 36 37 43 43 47 61 63 60 57 55 56 55 49 42 43 50 49 46 42 54 54 56 39 33 17 356 13 11 2 21 32 26 21 8 17 18 14 12 16 24 30 26 24 30 26 28 68 106 134 158 161 153 152 141 147 142 214 294 119 124 117 128 244 237 176 164 171 185 177 178 173 176 181 178
55 56 58 59 54 51 52 55 51 49 49 47 44 37 36 46 51 47 46 54 54 48 46 46 49 50 60 62 57 53 48 42 30 26 40 52 45 10 14 37 28 34 37 36 25 23 21 28 24 22 21 25 25 22 11 8 26 33 30 34 28 38 94 117 110 120 104 98 213 180 178 185 192 176 177 187 192 196 199 177 170 174 176 179 182 183 184
56 52 51 53 47 40 42 46 47 49 49 50 45 39 34 44 50 52 52 55 56 51 46 46 47 42 33 41 49 52 53 46 36 22 20 28 28 28 25 34 44 47 47 47 48 43 37 35 31 30 32 30 27 17 9 9 11 24 30 31 33 46 38 25 82 133 142 155 177 212 267 298 249 212 222 209 201 203 177 169 159 161 164 171 175 173 165
54 51 45 44 44 39 40 39 41 44 46 48 49 45 43 47 48 46 45 48 49 47 47 46 46 48 51 50 48 52 60 73 62 21 358 19 34 38 35 43 49 53 49 42 41 36 35 34 31 28 30 31 26 24 25 28 33 27 25 28 34 26 19 25 16 12 47 113 128 97 70 71 74 150 225 240 202 188 173 164 155 149 153 156 158 164 165
49 53 49 45 43 40 41 44 45 44 39 37 46 43 40 50 51 43 37 36 39 42 43 45 46 46 51 59 61 58 51 57 79 70 17 44 47 42 38 43 47 49 47 47 38 32 31 32 31 30 30 31 30 32 30 30 32 30 29 33 31 27 28 24 23 31 35 17 15 26 6 7 20 14 5 357 357 345 130 152 162 162 164 163 158 164 166
56 56 51 47 44 42 38 43 46 42 40 45 47 38 37 45 48 33 30 37 39 45 44 36 27 25 37 58 68 64 64 64 59 57 55 53 52 54 48 50 49 51 50 46 40 32 26 29 30 34 35 37 35 37 37 39 35 33 34 32 32 34 30 31 34 33 32 31 35 36 31 26 25 27 28 10 357 355 343 309 280 225 177 167 172 176 173
56 58 56 55 53 50 47 46 40 32 32 35 35 33 36 36 35 24 20 24 25 37 41 40 32 20 13 16 35 52 56 53 57 64 61 48 53 59 62 57 55 58 54 49 43 37 32 33 34 36 40 42 47 47 46 42 41 42 39 36 37 36 33 33 37 34 31 31 35 37 35 29 26 29 26 18 10 1 4 18 41 34 343 291 226 193 178
64 62 59 55 56 54 50 46 42 41 40 42 44 44 45 46 48 45 42 44 48 43 40 42 37 22 22 23 19 7 5 24 50 50 49 52 54 46 51 60 57 55 58 57 52 45 45 40 45 51 52 50 49 54 54 54 53 48 44 43 43 42 41 40 38 38 35 31 31 30 29 26 26 27 24 22 20 14 12 15 14 13 21 26 20 359 348